�N����,����,�~����,�C��,���x,�C��,����,���ϕ���,�ő�u�ԕ���,�ő厞����,���˗�,�I�_���x,�n�����x,�ő啗���N��,DTYPE
"18/02/21","00:10",0.0,3.6,84.5,1011.2,310.3,2.1,4.3,326.5,0.00,1.3,5.6,"00:04:16",1
"18/02/21","00:20",0.0,3.5,84.8,1011.9,311.2,1.7,2.1,309.5,0.00,1.2,5.6,"00:10:48",1
"18/02/21","00:30",0.0,3.5,85.6,1011.6,308.7,1.7,3.3,323.7,0.00,1.4,5.6,"00:22:16",1
"18/02/21","00:40",0.0,3.5,85.6,1011.2,315.3,1.3,2.1,320.6,0.00,1.4,5.9,"00:34:08",1
"18/02/21","00:50",0.0,3.4,85.7,1011.4,322.5,1.7,2.5,318.9,0.00,1.3,5.7,"00:47:04",1
"18/02/21","01:00",0.0,3.3,86.1,1011.9,292.9,1.2,1.9,309.9,0.00,1.2,5.6,"00:53:28",1
"18/02/21","01:10",0.0,3.1,86.7,1011.4,298.9,1.6,2.0,309.2,0.00,1.1,5.4,"01:01:36",1
"18/02/21","01:20",0.0,3.2,87.3,1011.6,308.9,1.3,2.1,328.4,0.00,1.3,5.4,"01:19:28",1
"18/02/21","01:30",0.0,3.3,87.7,1011.4,316.2,1.6,2.4,319.8,0.00,1.5,5.6,"01:22:16",1
"18/02/21","01:40",0.0,3.2,87.1,1011.9,294.2,1.0,1.9,318.4,0.00,1.3,5.3,"01:30:48",1
"18/02/21","01:50",0.0,3.1,88.3,1010.9,303.2,0.8,2.0,305.4,0.00,1.4,5.7,"01:40:40",1
"18/02/21","02:00",0.0,3.0,88.0,1010.7,291.6,1.5,2.5,317.9,0.00,1.3,5.3,"01:59:52",1
"18/02/21","02:10",0.0,2.9,88.9,1010.9,309.8,2.0,2.7,322.9,0.00,1.3,5.3,"02:07:12",1
"18/02/21","02:20",0.0,3.0,89.4,1010.7,297.9,1.7,2.0,315.8,0.00,1.5,5.2,"02:18:48",1
"18/02/21","02:30",0.0,3.0,89.0,1011.2,289.8,1.2,1.9,314.8,0.00,1.4,5.4,"02:21:04",1
"18/02/21","02:40",0.0,3.3,89.3,1011.2,311.1,1.8,3.3,328.8,0.00,1.8,5.4,"02:33:36",1
"18/02/21","02:50",0.0,3.7,88.3,1010.2,324.4,2.1,3.3,322.9,0.00,2.0,5.3,"02:45:28",1
"18/02/21","03:00",0.0,3.8,86.7,1010.4,303.3,1.8,2.6,307.4,0.00,1.8,5.4,"02:50:02",1
"18/02/21","03:10",0.0,3.9,86.2,1010.7,312.1,2.5,3.6,328.8,0.00,1.8,5.2,"03:09:28",1
"18/02/21","03:20",0.0,3.8,85.2,1010.7,320.7,2.2,3.3,318.0,0.00,1.6,5.5,"03:12:08",1
"18/02/21","03:30",0.0,3.7,85.2,1011.2,317.9,2.3,2.9,320.5,0.00,1.5,5.2,"03:23:12",1
"18/02/21","03:40",0.0,3.5,85.2,1011.4,303.4,1.5,2.2,319.1,0.00,1.3,5.2,"03:39:52",1
"18/02/21","03:50",0.0,3.7,85.7,1011.2,322.8,3.1,4.7,330.5,0.00,1.6,5.2,"03:44:40",1
"18/02/21","04:00",0.0,3.8,84.8,1011.2,326.4,3.6,5.5,324.3,0.00,1.5,5.4,"03:55:44",1
"18/02/21","04:10",0.0,3.7,84.6,1011.2,329.3,3.4,5.8,336.2,0.00,1.4,5.3,"04:04:32",1
"18/02/21","04:20",0.0,3.6,84.6,1012.1,323.3,2.7,3.5,332.0,0.00,1.3,5.3,"04:11:12",1
"18/02/21","04:30",0.0,3.5,84.9,1011.4,314.2,2.7,3.7,328.0,0.00,1.2,5.2,"04:28:00",1
"18/02/21","04:40",0.0,3.4,84.7,1011.6,314.3,2.1,3.6,318.1,0.00,1.1,5.2,"04:33:44",1
"18/02/21","04:50",0.0,3.3,84.8,1010.9,314.6,1.6,2.2,333.7,0.00,1.0,5.2,"04:42:40",1
"18/02/21","05:00",0.0,3.2,85.7,1010.4,311.2,2.1,3.5,323.2,0.00,1.1,5.3,"04:54:08",1
"18/02/21","05:10",0.0,3.2,85.9,1010.2,298.1,1.6,2.9,320.5,0.00,1.1,5.0,"05:02:16",1
"18/02/21","05:20",0.0,3.2,86.1,1010.4,264.8,1.1,1.7,268.9,0.00,1.1,5.2,"05:10:08",1
"18/02/21","05:30",0.0,3.2,86.0,1010.4,276.2,1.2,1.6,289.7,0.00,1.1,5.1,"05:29:28",1
"18/02/21","05:40",0.0,3.2,85.2,1010.4,296.9,1.5,2.1,318.8,0.00,1.0,5.2,"05:35:12",1
"18/02/21","05:50",0.0,3.1,85.5,1010.4,282.5,1.3,1.6,298.7,0.00,0.9,5.2,"05:40:24",1
"18/02/21","06:00",0.0,2.9,85.9,1010.2,290.3,1.1,1.6,305.9,0.00,0.8,5.1,"05:56:48",1
"18/02/21","06:10",0.0,2.8,85.7,1010.4,305.1,1.7,2.5,324.2,0.00,0.7,5.1,"06:02:48",1
"18/02/21","06:20",0.0,2.7,86.7,1010.7,287.5,1.3,1.8,312.2,0.00,0.7,5.1,"06:13:52",1
"18/02/21","06:30",0.0,2.7,87.0,1010.9,293.6,1.7,2.1,314.3,0.00,0.8,5.0,"06:27:12",1
"18/02/21","06:40",0.0,2.8,87.2,1010.9,302.4,1.8,2.8,310.9,0.00,0.9,4.9,"06:38:08",1
"18/02/21","06:50",0.0,2.8,86.7,1010.9,304.4,1.6,2.8,325.6,0.00,0.8,5.1,"06:46:24",1
"18/02/21","07:00",0.0,2.6,87.1,1011.2,303.0,1.6,2.4,309.4,0.00,0.7,5.0,"06:56:32",1
"18/02/21","07:10",0.0,2.8,88.1,1010.9,317.4,2.1,2.9,331.5,0.00,1.1,5.0,"07:08:00",1
"18/02/21","07:20",0.0,3.1,87.2,1010.7,316.9,2.2,3.7,319.6,0.00,1.2,5.1,"07:11:52",1
"18/02/21","07:30",0.0,3.2,86.3,1010.9,316.7,2.5,3.7,326.2,0.00,1.2,5.1,"07:25:12",1
"18/02/21","07:40",0.0,3.3,84.9,1010.7,322.6,3.1,4.4,334.1,0.00,1.0,4.9,"07:39:04",1
"18/02/21","07:50",0.0,3.5,83.4,1010.9,328.4,2.5,3.6,335.1,0.00,1.0,5.1,"07:42:32",1
"18/02/21","08:00",0.0,3.7,82.1,1010.9,331.6,2.5,4.0,345.2,0.02,1.0,5.0,"07:53:52",1
"18/02/21","08:10",0.0,3.9,81.1,1011.4,328.7,2.6,4.7,332.3,0.02,1.0,5.0,"08:09:12",1
"18/02/21","08:20",0.0,4.0,80.6,1011.4,324.5,2.8,4.1,337.0,0.02,1.0,5.1,"08:13:12",1
"18/02/21","08:30",0.0,4.2,80.1,1011.4,328.3,2.3,4.0,330.9,0.03,1.1,5.1,"08:20:16",1
"18/02/21","08:40",0.0,4.4,79.6,1011.6,331.8,1.6,2.5,343.8,0.04,1.2,5.2,"08:31:04",1
"18/02/21","08:50",0.0,4.7,78.8,1012.3,326.0,2.0,2.9,326.1,0.06,1.4,5.0,"08:40:24",1
"18/02/21","09:00",0.0,5.2,77.8,1011.6,317.1,2.1,3.5,326.4,0.08,1.7,5.3,"08:51:44",1
"18/02/21","09:10",0.0,5.6,76.0,1012.1,317.6,2.5,3.3,314.9,0.09,1.7,5.3,"09:05:04",1
"18/02/21","09:20",0.0,6.0,73.6,1011.6,314.2,2.5,3.5,332.3,0.09,1.7,5.5,"09:13:20",1
"18/02/21","09:30",0.0,6.0,70.8,1011.9,312.6,2.3,3.5,326.0,0.10,1.1,5.7,"09:28:00",1
"18/02/21","09:40",0.0,6.3,67.8,1012.1,306.5,2.3,3.5,315.8,0.11,0.8,5.5,"09:36:08",1
"18/02/21","09:50",0.0,6.9,65.3,1012.6,293.4,2.3,3.3,318.2,0.17,0.9,5.6,"09:45:28",1
"18/02/21","10:00",0.0,7.1,60.8,1012.6,299.3,2.2,3.7,315.1,0.19,0.1,5.7,"09:52:48",1
"18/02/21","10:10",0.0,6.8,61.1,1012.6,279.9,2.1,3.2,319.9,0.16,-0.1,5.8,"10:01:04",1
"18/02/21","10:20",0.0,7.0,59.8,1012.3,286.2,2.0,4.2,304.7,0.14,-0.2,6.1,"10:19:36",1
"18/02/21","10:30",0.0,7.7,61.5,1012.3,290.2,2.2,4.0,318.0,0.17,0.8,6.3,"10:20:02",1
"18/02/21","10:40",0.0,7.2,62.3,1012.6,267.9,2.6,4.9,237.7,0.20,0.5,6.1,"10:39:52",1
"18/02/21","10:50",0.0,7.4,61.7,1012.8,276.0,2.3,4.1,241.0,0.16,0.6,6.1,"10:40:24",1
"18/02/21","11:00",0.0,7.9,61.5,1012.3,285.8,2.3,5.1,333.0,0.12,1.0,6.5,"10:58:16",1
"18/02/21","11:10",0.0,7.6,61.7,1012.3,294.2,2.6,5.0,316.1,0.08,0.8,6.2,"11:01:36",1
"18/02/21","11:20",0.0,7.1,64.2,1012.6,302.9,3.0,8.0,327.2,0.11,0.8,6.5,"11:17:20",1
"18/02/21","11:30",0.0,7.5,65.1,1012.8,302.4,3.5,5.1,330.3,0.20,1.4,6.7,"11:25:28",1
"18/02/21","11:40",0.0,7.3,64.7,1012.3,289.6,2.7,4.7,234.4,0.20,1.1,6.7,"11:33:44",1
"18/02/21","11:50",0.0,7.7,65.2,1012.1,294.0,2.8,5.4,321.6,0.22,1.6,6.8,"11:43:12",1
"18/02/21","12:00",0.0,7.3,66.2,1011.6,284.5,2.2,3.7,314.7,0.16,1.5,6.8,"11:59:20",1
"18/02/21","12:10",0.0,7.0,69.4,1011.6,303.8,3.0,5.1,310.3,0.15,1.8,6.8,"12:00:02",1
"18/02/21","12:20",0.0,7.1,69.8,1011.9,299.9,3.4,5.7,330.0,0.20,2.0,6.7,"12:10:56",1
"18/02/21","12:30",0.0,7.3,70.9,1011.9,285.0,2.6,4.7,304.8,0.16,2.4,7.1,"12:22:40",1
"18/02/21","12:40",0.0,6.9,72.1,1011.6,291.4,2.8,4.4,280.7,0.16,2.3,7.1,"12:34:48",1
"18/02/21","12:50",0.0,6.9,73.1,1011.6,293.0,3.4,5.8,301.1,0.18,2.5,7.2,"12:41:04",1
"18/02/21","13:00",0.0,7.7,69.8,1011.6,301.1,3.2,5.2,337.4,0.26,2.6,7.4,"12:51:12",1
"18/02/21","13:10",0.0,8.7,68.6,1011.6,304.3,4.0,6.3,340.1,0.46,3.3,7.5,"13:03:04",1
"18/02/21","13:20",0.0,8.5,68.0,1011.4,297.6,3.5,6.2,311.1,0.42,3.0,7.7,"13:13:20",1
"18/02/21","13:30",0.0,7.8,68.6,1011.2,290.6,3.1,5.5,305.9,0.45,2.4,7.8,"13:25:20",1
"18/02/21","13:40",0.0,8.7,67.1,1011.9,292.3,3.2,5.7,311.8,0.46,3.0,8.0,"13:30:56",1
"18/02/21","13:50",0.0,8.3,69.3,1011.9,305.1,3.1,4.7,301.3,0.41,3.1,8.1,"13:40:24",1
"18/02/21","14:00",0.0,8.0,70.8,1011.4,302.3,3.4,5.1,298.4,0.29,3.1,8.2,"13:58:40",1
"18/02/21","14:10",0.0,7.3,76.4,1011.2,296.0,3.2,5.6,328.7,0.21,3.5,8.2,"14:00:08",1
"18/02/21","14:20",0.0,6.7,79.6,1011.4,305.4,3.4,5.8,344.8,0.14,3.5,8.4,"14:17:14",1
"18/02/21","14:30",0.0,6.5,78.4,1011.4,301.9,3.7,7.5,337.0,0.08,3.1,8.2,"14:29:04",1
"18/02/21","14:40",0.0,5.9,77.6,1011.4,328.0,5.5,8.6,315.0,0.06,2.3,8.4,"14:34:46",1
"18/02/21","14:50",0.0,6.0,76.9,1011.4,334.8,4.4,6.8,330.4,0.06,2.3,8.0,"14:47:12",1
"18/02/21","15:00",0.0,6.1,76.4,1010.9,330.7,4.2,7.2,329.7,0.06,2.3,8.1,"14:51:52",1
"18/02/21","15:10",0.0,6.4,75.5,1010.9,328.3,4.6,6.8,324.4,0.09,2.4,7.9,"15:02:32",1
"18/02/21","15:20",0.0,6.6,73.9,1010.9,329.3,4.4,6.8,341.3,0.11,2.3,8.0,"15:12:24",1
"18/02/21","15:30",0.0,6.8,71.0,1010.9,331.7,4.1,6.3,339.1,0.08,2.0,8.1,"15:21:20",1
"18/02/21","15:40",0.0,7.1,69.4,1010.7,324.1,4.7,8.5,317.5,0.08,1.9,7.9,"15:30:50",1
"18/02/21","15:50",0.0,6.7,68.0,1011.2,325.1,5.4,10.8,326.5,0.08,1.3,7.9,"15:40:40",1
"18/02/21","16:00",0.0,6.7,68.6,1011.4,326.6,4.6,7.7,352.4,0.06,1.4,7.8,"15:55:20",1
"18/02/21","16:10",0.0,6.8,68.9,1011.4,327.2,4.1,6.0,316.4,0.07,1.5,7.7,"16:08:54",1
"18/02/21","16:20",0.0,6.5,68.7,1011.4,327.6,4.4,7.9,331.0,0.06,1.2,7.8,"16:19:42",1
"18/02/21","16:30",0.0,6.2,70.0,1011.4,329.1,4.6,6.8,339.4,0.05,1.2,7.5,"16:27:42",1
"18/02/21","16:40",0.0,6.3,70.2,1011.2,317.4,4.5,7.1,329.5,0.05,1.3,7.6,"16:30:08",1
"18/02/21","16:50",0.0,6.2,70.7,1011.6,322.6,4.4,7.1,333.0,0.06,1.3,7.3,"16:42:50",1
"18/02/21","17:00",0.0,6.1,70.6,1011.2,324.3,4.4,7.5,332.7,0.04,1.2,7.6,"16:57:36",1
"18/02/21","17:10",0.0,5.7,72.1,1011.2,328.8,4.9,6.8,335.0,0.01,1.1,7.4,"17:02:00",1
"18/02/21","17:20",0.0,5.5,73.3,1011.4,321.5,4.2,7.7,322.3,0.00,1.1,7.2,"17:12:08",1
"18/02/21","17:30",0.0,5.3,74.5,1011.4,325.1,4.2,5.6,313.3,0.00,1.2,7.2,"17:29:44",1
"18/02/21","17:40",0.0,5.2,75.2,1011.6,326.5,3.9,6.3,331.7,0.00,1.2,7.1,"17:36:48",1
"18/02/21","17:50",0.0,4.9,76.3,1011.4,328.7,3.0,5.2,340.0,0.00,1.1,7.1,"17:42:52",1
"18/02/21","18:00",0.0,4.5,77.0,1011.2,329.1,2.7,4.7,326.9,0.00,0.9,6.9,"17:59:12",1
"18/02/21","18:10",0.0,4.5,77.3,1011.4,340.3,2.8,4.8,341.4,0.00,0.9,6.9,"18:08:16",1
"18/02/21","18:20",0.0,4.3,77.3,1011.4,345.3,3.0,4.3,356.1,0.00,0.7,6.9,"18:12:40",1
"18/02/21","18:30",0.0,4.3,76.1,1011.6,347.0,2.7,5.8,0.9,0.00,0.5,6.7,"18:22:40",1
"18/02/21","18:40",0.0,4.3,74.9,1011.4,342.0,2.7,4.8,343.1,0.00,0.3,6.7,"18:30:24",1
"18/02/21","18:50",0.0,3.9,77.6,1011.9,330.2,3.4,6.2,336.2,0.00,0.4,6.7,"18:49:36",1
"18/02/21","19:00",0.0,4.1,77.8,1011.9,327.8,4.0,6.3,325.0,0.00,0.6,6.3,"18:59:52",1
"18/02/21","19:10",0.0,3.7,77.2,1012.1,331.2,4.0,5.7,327.2,0.00,0.1,6.4,"19:01:28",1
"18/02/21","19:20",0.0,3.0,80.9,1012.1,332.4,2.6,3.7,329.0,0.00,0.1,6.3,"19:19:20",1
"18/02/21","19:30",0.0,2.5,82.3,1012.1,328.5,2.5,3.9,329.3,0.00,-0.2,6.2,"19:26:00",1
"18/02/21","19:40",0.0,2.2,84.9,1011.9,316.5,2.5,3.6,333.9,0.00,0.0,6.1,"19:34:10",1
"18/02/21","19:50",0.0,2.1,86.3,1012.1,324.2,2.7,3.6,328.1,0.00,0.1,6.1,"19:46:40",1
"18/02/21","20:00",0.0,1.9,86.9,1011.9,318.2,2.8,4.2,328.7,0.00,0.0,6.0,"19:56:50",1
"18/02/21","20:10",0.0,1.7,87.6,1012.1,313.6,2.8,4.4,316.2,0.00,-0.1,5.8,"20:04:16",1
"18/02/21","20:20",0.0,1.5,88.0,1012.1,298.3,2.5,4.0,316.1,0.00,-0.2,6.0,"20:10:32",1
"18/02/21","20:30",0.0,1.4,88.3,1012.1,300.1,2.7,3.5,303.6,0.00,-0.3,5.9,"20:20:16",1
"18/02/21","20:40",0.0,1.4,89.4,1012.3,321.3,3.2,4.5,326.1,0.00,-0.1,5.8,"20:35:40",1
"18/02/21","20:50",0.0,1.7,89.7,1012.3,324.1,3.6,5.0,312.8,0.00,0.2,5.4,"20:43:48",1
"18/02/21","21:00",0.0,1.8,89.0,1012.1,315.2,3.6,5.4,327.6,0.00,0.2,5.7,"20:55:18",1
"18/02/21","21:10",0.0,1.6,88.5,1012.3,310.7,3.6,5.4,322.3,0.00,-0.1,5.7,"21:00:26",1
"18/02/21","21:20",0.0,1.5,88.6,1012.6,316.5,3.5,5.0,323.9,0.00,-0.1,5.6,"21:17:18",1
"18/02/21","21:30",0.0,1.4,89.0,1012.3,310.5,3.1,4.3,327.8,0.00,-0.2,5.3,"21:27:32",1
"18/02/21","21:40",0.0,1.3,89.3,1012.3,301.8,2.6,3.5,320.8,0.00,-0.2,5.4,"21:32:56",1
"18/02/21","21:50",0.0,1.3,89.4,1012.3,310.9,3.2,4.7,316.1,0.00,-0.2,5.4,"21:44:14",1
"18/02/21","22:00",0.0,1.0,89.4,1012.6,319.7,3.2,4.7,327.9,0.00,-0.5,5.3,"21:51:58",1
"18/02/21","22:10",0.0,1.2,90.4,1012.6,322.5,3.6,4.8,323.9,0.00,-0.2,5.3,"22:06:06",1
"18/02/21","22:20",0.0,1.5,89.4,1012.3,322.2,4.1,5.6,316.6,0.00,0.0,5.2,"22:12:38",1
"18/02/21","22:30",0.0,1.1,88.1,1012.3,311.4,2.6,3.9,328.9,0.00,-0.6,5.0,"22:20:16",1
"18/02/21","22:40",0.0,0.8,89.2,1012.1,306.3,2.5,4.2,316.5,0.00,-0.7,4.9,"22:36:32",1
"18/02/21","22:50",0.0,0.7,89.5,1012.3,307.5,2.7,3.9,326.5,0.00,-0.8,5.1,"22:46:26",1
"18/02/21","23:00",0.0,0.5,90.1,1012.1,307.3,2.3,3.9,324.8,0.00,-0.9,5.0,"22:58:56",1
"18/02/21","23:10",0.0,0.5,90.5,1011.9,315.9,2.2,3.5,319.8,0.00,-0.8,4.7,"23:05:36",1
"18/02/21","23:20",0.0,0.4,91.1,1011.9,323.7,2.1,3.1,328.4,0.00,-0.8,5.0,"23:18:40",1
"18/02/21","23:30",0.0,0.3,91.0,1011.9,311.9,1.7,2.7,334.1,0.00,-1.0,4.8,"23:23:52",1
"18/02/21","23:40",0.0,0.2,91.8,1011.9,308.5,1.2,1.7,318.3,0.00,-0.9,4.6,"23:32:24",1
"18/02/21","23:50",0.0,-0.1,92.1,1012.1,295.6,1.3,2.4,327.4,0.00,-1.2,4.9,"23:44:56",1
"18/02/21","24:00",0.0,-0.2,92.5,1011.6,306.5,1.0,2.5,326.2,0.00,-1.2,4.5,"23:54:00",1
